Dewpoint
55 55 55 56 56 56 56 56 56 56 56 56 57 57 58 58 57 56 43 32 29 33 34 25 36 31 23 23 24 49 45 42 44 38 33 36 43 49 52 52 55 55 57 59 61
54 54 54 55 55 55 55 55 56 56 56 56 57 57 58 58 54 48 44 39 37 38 12 35 33 16 19 34 42 43 44 45 40 26 27 29 42 44 49 47 55 58 59 59 60
54 54 54 54 54 55 55 55 55 55 55 56 57 58 58 57 51 36 41 38 35 36 24 36 37 19 25 34 41 35 29 37 31 24 26 30 44 49 47 44 50 57 58 59 59
53 53 53 53 53 54 54 54 54 54 55 56 57 58 59 55 38 33 36 34 40 46 41 39 29 22 30 34 41 34 35 32 23 24 27 26 44 48 48 47 50 57 58 59 59
52 52 53 53 53 53 53 53 54 54 55 56 57 59 50 44 42 39 40 40 40 38 37 29 21 23 30 32 32 32 31 23 24 25 27 28 33 47 47 51 55 57 58 59 59
52 52 52 52 52 53 53 54 53 54 54 57 58 57 48 34 39 33 31 36 37 37 22 24 24 25 28 27 28 28 26 25 26 27 27 33 37 37 46 53 56 57 58 58 59
51 51 51 51 52 52 53 53 52 53 53 58 59 53 41 27 39 38 39 33 32 21 21 25 26 25 24 23 27 26 23 24 25 26 30 33 32 40 43 52 56 57 57 57 59
51 51 51 51 52 52 52 52 51 52 52 58 59 51 37 31 32 37 36 31 26 21 20 28 27 25 21 22 22 21 21 20 23 26 32 29 31 33 42 47 52 56 57 57 58
50 50 51 51 52 52 52 50 50 51 54 58 54 50 40 23 21 26 34 29 24 19 18 25 24 23 22 16 14 14 15 18 25 23 25 22 34 36 39 49 50 53 56 57 58
50 51 51 51 51 52 51 44 46 49 50 52 49 36 35 27 20 17 31 29 22 18 17 23 22 21 20 18 11 11 14 15 23 24 21 20 28 38 41 49 50 52 56 57 58
50 50 51 51 51 51 48 34 39 43 39 36 31 22 24 24 23 20 28 26 21 17 15 19 18 16 16 14 12 12 10 9 10 22 22 20 21 35 36 49 51 53 57 58 57
49 50 50 50 50 50 49 29 26 23 20 22 24 32 27 24 21 21 28 21 17 16 16 15 16 15 16 16 12 8 6 7 9 22 20 21 20 21 36 41 52 55 56 58 59
49 50 50 50 49 47 29 27 28 21 20 18 15 16 21 19 21 20 21 23 19 16 16 12 18 17 15 13 8 6 5 7 9 15 19 21 20 21 25 35 53 56 58 59 60
49 49 49 49 38 33 29 28 23 22 21 13 10 10 13 16 13 16 18 22 18 17 15 12 13 17 16 15 10 7 11 16 11 11 10 17 15 22 27 32 34 56 58 58 59
49 49 49 49 41 30 26 20 22 25 16 9 6 12 11 9 11 12 19 22 19 17 19 17 15 15 16 14 10 9 17 22 23 17 17 17 20 23 30 34 39 43 57 57 60
48 48 48 45 46 38 31 24 22 22 15 7 11 8 7 7 9 11 20 20 19 18 22 19 21 19 17 17 13 14 15 20 20 16 14 26 26 29 27 36 41 38 40 57 62
48 47 47 44 32 29 26 22 20 17 9 5 11 7 4 5 6 7 16 19 17 18 20 24 21 21 18 16 16 14 14 15 18 19 22 28 23 30 29 31 40 42 52 57 61
47 47 46 43 34 33 29 21 18 15 10 10 11 11 10 7 7 7 13 20 19 19 21 21 20 19 18 15 18 17 16 17 17 16 24 29 23 27 33 36 37 39 49 57 59
47 44 42 39 42 36 26 19 18 18 11 10 9 10 9 8 6 6 14 19 21 19 19 21 21 23 17 16 16 16 19 19 18 21 16 25 30 35 37 37 39 39 46 56 57
44 39 32 35 37 29 24 21 16 14 13 11 10 8 10 6 4 6 7 16 18 20 21 20 22 19 16 18 18 17 19 15 21 14 15 18 28 28 32 34 39 42 46 54 57
45 35 29 32 31 27 18 17 15 16 16 13 11 12 14 16 10 7 7 15 18 18 20 20 23 22 21 19 18 17 15 17 16 20 18 16 30 39 37 38 43 51 52 53 55
41 34 34 28 24 22 15 13 10 10 10 14 14 11 14 16 19 21 9 13 16 18 19 21 22 20 22 22 21 20 19 24 18 16 22 21 31 44 44 47 52 56 54 50 54
38 39 32 25 15 14 14 10 9 8 8 14 12 11 10 13 21 26 21 16 18 24 26 27 21 18 18 21 21 21 18 16 23 32 26 25 32 45 47 51 50 50 50 55 55
39 36 31 27 20 18 16 19 16 11 9 15 14 12 10 12 17 23 22 17 17 23 28 26 27 26 19 23 24 22 23 23 25 22 19 22 31 44 42 41 47 53 54 52 60
42 35 32 28 24 19 16 19 20 14 12 13 16 13 10 13 18 18 20 22 16 21 21 28 25 28 27 25 21 21 23 23 21 24 22 21 39 41 45 44 46 43 39 44 54
36 31 33 32 32 26 28 21 21 19 16 11 13 16 16 14 21 26 33 34 36 27 19 26 24 26 25 27 23 23 24 25 23 22 21 38 39 48 48 47 44 45 45 49 52
40 35 33 32 26 24 25 25 18 19 22 20 17 19 22 37 36 35 31 33 37 36 38 32 34 27 23 29 29 27 26 28 27 29 28 17 40 48 49 47 47 49 48 50 57
Wind_Speed
19 19 19 19 18 19 19 19 19 20 19 18 18 19 18 18 21 3 4 3 3 8 11 14 17 13 15 10 11 15 18 6 14 19 16 20 29 17 16 19 19 8 24 24 24
21 21 20 20 20 20 20 20 21 20 21 20 17 17 16 16 4 7 2 3 5 6 5 12 16 16 9 4 2 5 16 15 18 16 9 11 28 18 11 14 15 23 23 24 23
20 21 21 21 21 21 20 21 21 22 21 21 18 14 13 10 4 2 3 3 5 4 4 11 17 16 16 11 6 10 5 5 3 11 10 9 20 6 19 8 13 27 24 24 22
22 22 21 22 22 22 22 22 23 23 22 21 20 15 10 2 4 3 5 3 4 6 8 10 12 10 9 7 11 8 15 8 6 4 12 13 20 15 17 15 22 26 24 22 21
21 22 23 23 23 23 24 24 24 24 23 21 18 15 1 3 4 5 5 4 5 5 9 16 15 14 12 13 8 5 6 3 4 7 8 1 13 22 18 23 21 25 24 21 19
22 23 24 24 25 25 24 24 24 24 23 19 16 14 3 7 9 11 8 6 11 12 17 10 11 17 11 12 6 10 12 10 10 7 6 7 10 15 19 28 26 25 23 21 21
23 23 24 25 26 26 26 26 25 24 22 17 12 7 5 11 13 15 14 13 13 8 12 10 11 15 18 16 10 5 9 16 17 14 8 9 9 6 16 25 27 24 22 20 22
24 24 25 26 27 28 28 28 27 24 19 13 8 3 7 4 3 14 14 16 7 11 12 9 7 12 9 12 9 7 14 17 21 15 9 6 4 9 8 22 23 25 23 20 20
25 26 26 26 28 28 30 34 29 18 13 12 4 1 8 2 5 11 11 13 12 8 10 8 6 9 12 14 12 10 19 15 7 7 6 4 10 16 16 19 22 21 20 21 19
25 26 27 27 28 28 34 34 14 8 5 7 8 6 8 9 10 12 14 13 4 8 8 9 5 7 11 12 16 8 8 14 15 12 11 4 5 16 16 24 23 20 20 22 20
25 26 27 29 29 24 20 8 4 4 3 9 7 5 6 7 8 10 13 3 10 8 11 13 6 12 22 21 8 10 12 15 11 11 8 3 12 16 21 24 24 22 22 23 22
26 27 28 29 31 26 5 4 8 8 11 17 21 24 26 10 7 9 10 6 10 12 14 13 18 20 15 4 7 9 11 13 13 13 7 4 14 21 18 22 28 26 24 22 20
27 27 29 32 34 10 6 12 13 14 6 11 20 18 20 8 9 12 17 14 13 14 16 19 17 15 2 6 8 8 9 14 14 8 4 8 15 19 13 14 25 25 24 21 23
27 28 28 35 6 12 7 6 7 13 5 8 9 20 22 11 11 21 19 12 8 15 18 14 20 7 2 7 5 12 16 10 5 10 11 10 20 17 14 17 18 25 24 22 23
27 27 28 11 11 7 10 19 12 7 2 9 19 14 14 16 2 16 20 16 18 19 10 15 14 8 8 7 10 14 7 9 11 12 10 18 9 9 10 5 13 14 23 24 22
28 26 25 5 3 13 21 20 10 2 8 2 7 15 18 18 21 10 15 13 13 20 20 18 13 5 5 11 12 7 10 7 12 12 14 7 5 10 11 4 8 11 15 23 25
31 27 13 8 6 17 20 6 2 6 7 6 13 17 19 17 24 17 18 16 18 10 14 16 14 7 6 12 8 6 5 8 5 3 7 9 5 14 20 15 18 21 22 22 24
35 33 9 11 12 14 8 2 5 9 19 18 5 20 22 19 21 22 20 18 20 20 11 15 14 20 14 13 6 13 13 10 5 7 5 3 7 1 21 14 10 11 22 25 24
35 2 4 8 16 9 2 6 9 8 6 16 22 19 18 21 14 21 17 22 20 23 20 9 18 19 17 8 11 6 13 17 15 11 9 5 4 3 8 11 10 9 20 22 24
9 6 11 11 15 7 3 6 13 14 19 13 16 7 6 21 22 22 20 18 19 24 24 18 16 7 18 13 9 10 6 6 6 9 12 9 5 3 9 8 2 11 15 20 20
2 4 5 17 11 4 7 9 9 16 21 9 16 11 11 17 19 17 21 18 24 21 26 21 12 18 5 3 8 9 12 7 6 4 3 10 1 9 17 16 13 32 18 18 20
6 4 11 10 5 5 10 5 5 20 27 4 9 9 11 21 6 11 14 17 11 27 22 20 5 10 12 15 19 16 14 12 9 10 9 9 1 5 15 17 25 33 33 24 15
7 6 7 8 6 13 11 16 20 25 26 6 7 12 8 10 8 10 7 10 24 4 3 4 8 10 13 13 10 6 12 5 6 3 11 9 5 1 8 31 31 27 20 34 11
5 4 5 9 12 10 11 14 18 21 24 4 12 13 11 7 13 9 14 7 11 11 10 4 4 2 12 8 11 6 12 7 7 10 15 11 6 1 5 16 18 37 39 18 10
5 5 8 0 8 17 15 15 21 15 7 4 9 12 12 3 12 14 8 8 5 5 4 5 2 6 13 16 16 19 13 10 9 14 11 19 12 14 4 6 6 6 8 4 20
6 7 10 15 16 12 11 20 15 16 6 8 9 15 11 6 11 9 14 8 7 4 3 3 3 6 11 13 18 22 25 15 16 17 20 18 11 6 4 13 8 13 13 6 22
9 11 8 12 12 10 12 11 8 13 10 10 16 9 8 15 18 15 7 7 5 7 6 2 3 3 15 11 17 15 12 6 8 10 19 16 13 16 12 17 14 15 10 16 18
Wind_Direction
7 4 0 356 352 349 346 342 334 330 328 325 324 321 324 322 313 177 274 258 276 334 331 299 286 266 256 264 254 105 77 202 235 246 115 128 105 80 81 64 49 108 141 142 137
5 359 356 353 349 346 343 337 328 326 326 321 323 320 322 333 320 258 257 269 286 331 310 311 323 318 262 326 58 123 169 223 246 28 104 113 125 133 115 100 82 98 121 137 144
1 357 353 350 348 340 339 330 327 324 322 319 319 318 317 330 312 164 179 256 308 291 259 287 286 298 288 237 177 154 207 233 292 9 17 98 115 108 133 166 155 139 147 150 150
360 354 350 348 344 337 333 330 326 323 319 319 317 317 317 212 45 158 161 168 270 294 298 277 271 270 283 279 153 164 247 262 88 63 36 30 140 131 160 180 168 146 155 158 153
356 350 348 344 339 334 331 328 323 322 318 318 321 327 12 301 236 151 163 180 267 267 249 282 294 299 331 328 143 236 217 61 225 141 109 199 2 144 134 154 154 147 157 163 165
354 349 344 341 337 331 327 324 321 317 316 319 324 322 333 296 126 149 194 192 247 241 285 288 316 339 307 332 13 4 348 339 319 276 176 95 41 113 123 150 154 154 160 173 170
350 347 342 337 334 328 325 320 316 313 312 313 324 324 288 246 145 167 218 230 255 287 304 311 358 338 325 320 315 312 304 281 243 248 119 109 67 112 134 142 148 156 167 180 171
347 344 340 335 329 327 322 316 308 303 297 301 312 309 266 199 323 179 211 250 240 272 286 321 345 303 290 295 317 253 252 265 272 197 157 140 233 211 205 144 152 162 175 177 172
345 341 337 333 328 327 321 312 301 288 268 288 309 255 273 23 237 228 224 246 215 244 276 293 315 262 289 272 277 278 256 253 107 146 152 165 190 206 223 158 161 166 169 159 160
343 338 333 330 327 327 323 307 291 315 242 238 268 308 258 232 193 210 215 251 288 237 261 242 245 246 276 263 250 297 255 317 141 157 172 304 232 203 220 164 163 156 153 158 161
342 336 331 327 324 328 341 345 320 37 224 233 283 240 270 215 79 196 199 174 265 267 251 251 217 247 248 245 282 12 338 332 338 126 79 343 298 192 182 159 160 159 157 162 163
339 334 330 325 319 317 289 285 20 316 296 278 257 252 268 152 199 230 183 202 228 244 241 269 232 251 270 60 22 346 322 309 309 131 126 213 279 288 188 175 165 162 166 168 166
336 333 331 326 317 309 237 271 315 309 277 278 233 241 238 167 242 226 196 210 239 226 256 237 252 229 1 351 346 308 284 293 296 355 340 215 248 252 246 156 160 167 167 166 168
334 331 333 331 327 334 287 238 319 326 299 266 210 226 214 192 242 240 192 195 229 244 243 256 259 218 265 278 264 275 279 327 291 346 303 313 303 269 239 162 150 164 162 176 170
330 329 328 320 301 303 331 332 339 311 309 222 207 164 176 194 138 213 189 197 239 256 237 252 261 277 181 249 231 252 328 352 334 303 306 298 329 324 96 83 134 123 171 178 161
327 326 331 94 219 255 288 293 312 238 243 242 123 172 190 202 228 232 165 187 235 256 275 257 292 244 240 240 256 342 342 327 287 266 274 321 335 23 344 141 149 198 235 153 145
322 316 307 298 232 333 319 318 192 231 270 212 157 171 207 194 220 233 185 187 223 240 266 286 267 223 228 287 228 187 280 281 278 205 233 275 341 173 204 226 182 190 148 146 147
321 312 249 216 256 311 317 246 225 244 251 291 240 188 197 216 205 235 186 198 214 244 229 234 261 228 201 214 241 192 208 227 292 304 254 320 238 68 91 62 52 114 141 146 140
319 295 228 244 220 253 292 211 208 236 215 306 313 190 200 209 210 211 196 201 205 224 241 262 246 277 193 170 229 264 220 231 255 288 319 220 175 218 59 110 120 160 157 150 148
324 292 256 181 171 188 187 244 234 264 290 326 312 181 228 202 214 197 219 201 225 212 222 255 284 313 173 173 210 208 270 325 322 273 278 294 184 167 100 140 249 340 146 146 154
274 278 129 139 157 215 219 238 305 281 289 318 333 347 341 339 231 213 207 209 212 233 213 227 236 281 103 134 228 241 241 253 257 274 293 300 222 217 180 163 54 17 312 155 160
310 279 178 145 166 223 244 253 269 295 304 314 305 300 303 338 357 343 200 205 238 212 229 211 184 256 241 208 209 225 236 229 219 257 245 253 212 78 98 77 94 91 301 319 143
313 271 180 187 215 229 247 259 263 273 277 255 282 288 310 328 336 24 327 39 24 63 61 325 184 243 297 312 312 326 229 285 281 268 265 292 233 180 86 101 102 110 293 314 247
283 255 157 205 247 277 272 284 265 263 265 277 314 288 299 294 316 319 346 356 60 71 41 48 64 175 239 244 332 300 329 325 27 319 288 269 179 353 89 103 115 132 214 275 313
243 311 28 340 232 229 249 275 292 265 228 298 327 301 288 312 316 303 311 324 352 49 60 40 40 17 330 334 326 318 270 275 283 289 281 276 144 191 120 88 66 273 293 281 309
330 354 342 302 317 323 260 253 282 309 155 215 257 292 310 258 302 333 5 28 58 357 66 13 330 343 307 317 305 303 306 221 217 216 245 114 145 101 106 97 136 248 255 270 297
351 340 304 292 304 300 295 305 252 291 327 286 229 243 284 5 337 332 357 11 35 350 44 42 357 244 268 298 305 308 288 32 244 340 356 284 150 158 182 180 181 202 225 265 261